Regional Weather Roundup
Issued by NWS

Home | Current Version | Previous Version | Graphics & Text | Print | Product List | Glossary On
Versions: 1 2 3 4 5 6 7 8 9 10 11 12 13 14 15 16 17 18 19 20 21 22 23 24 25 26 27 28 29 30 31 32 33 34 35 36 37 38 39 40 41 42 43 44 45 46 47 48 49 50
000
ASUS45 KBOI 050610
RWRID
WEATHER ROUNDUP FOR IDAHO
NATIONAL WEATHER SERVICE BOISE ID
1100 PM MST WED MAR 04 2015

NOTE: "FAIR" INDICATES FEW OR NO CLOUDS BELOW 12000 FEET
WITH NO SIGNIFICANT WEATHER AND/OR OBSTRUCTIONS TO VISIBILITY

IDZ012-014-050700-
SOUTHWEST IDAHO


CITY           SKY/WX    TMP DP  RH WIND       PRES   REMARKS
BOISE          CLEAR     29  15  56 SE6       30.32R WCI  23
CALDWELL       CLEAR     28   7  40 E3        30.35R
MOUNTAIN HOME  CLEAR     23  10  57 S2        30.32R
$$

IDZ016-017-050700-
SOUTHCENTRAL IDAHO


CITY           SKY/WX    TMP DP  RH WIND       PRES   REMARKS
JEROME         CLEAR     28   9  44 SE8       30.30R WCI  20
TWIN FALLS     CLEAR     28  11  48 S12       30.30R WCI  18
$$

IDZ019>023-050700-
SOUTHEAST IDAHO


CITY           SKY/WX    TMP DP  RH WIND       PRES   REMARKS
IDAHO FALLS    PTCLDY    26  13  57 S7        30.29R WCI  18
POCATELLO      CLEAR     29  10  45 S10       30.30R WCI  20
REXBURG        PTCLDY    16  10  77 N3        30.28R
$$

IDZ006-010-011-018-031-032-050700-
CENTRAL IDAHO MOUNTAINS


CITY           SKY/WX    TMP DP  RH WIND       PRES   REMARKS
MCCALL         PTCLDY    23  11  60 NW5       30.26R WCI  17
HAILEY         CLEAR     27  18  69 NW9       30.28R WCI  17
STANLEY          N/A     12   2  64 SE3       30.26R
SALMON         CLEAR     23  12  63 CALM      30.26R
CHALLIS        CLEAR     24   9  52 CALM      30.24R
$$

IDZ002-004-006-007-026-050700-
NORTHERN IDAHO


CITY           SKY/WX    TMP DP  RH WIND       PRES   REMARKS
LEWISTON       CLEAR     33  17  51 VRB3      30.30R
LOWELL           N/A     28  20  71 CALM      30.39S
COEUR D`ALENE  CLEAR     27  16  63 CALM      30.26S
MULLAN PASS    PTCLDY    21   5  50 SW7       30.16R WCI  12
$$


USA.gov is the U.S. government's official web portal to all federal, state and local government web resources and services.